Regional Weather Roundup
Issued by NWS Cleveland, OH

Home | Current Version | Previous Version | Graphics & Text | Print | Product List | Glossary On
Versions: 1 2 3 4 5 6 7 8 9 10 11 12 13 14 15 16 17 18 19 20 21 22 23 24 25 26 27 28 29 30 31 32 33 34 35 36 37 38 39 40 41 42 43 44 45 46 47 48 49 50
000
ASUS41 KCLE 200210
RWRCLE
OHIO REGIONAL WEATHER ROUNDUP
NATIONAL WEATHER SERVICE CLEVELAND, OH
1000 PM EDT FRI SEP 19 2014

NOTE: "FAIR" INDICATES FEW OR NO CLOUDS BELOW 12,000 FEET WITH NO
SIGNIFICANT WEATHER AND/OR OBSTRUCTIONS TO VISIBILITY.

OHZ001>008-015>018-024>027-034-035-043-044-200300-
   NORTHWEST OHIO

CITY           SKY/WX    TMP DP  RH WIND       PRES   REMARKS
DEFIANCE       CLEAR     53  48  83 CALM      30.08S
FINDLAY        PTCLDY    54  47  77 SE6       30.07F
TOLEDO EXPRESS CLEAR     53  51  93 CALM      30.08F
TOLEDO EXEC    PTCLDY    56  51  84 SE5       30.09F
LIMA           CLEAR     58  47  66 SE7       30.08F
$$

OHZ009>014-019>023-028>033-038-089-200300-
   NORTHEAST OHIO

CITY           SKY/WX    TMP DP  RH WIND       PRES   REMARKS
CLE-HOPKINS    PTCLDY    58  51  78 S7        30.11F
CLE-LAKEFRONT  PTCLDY    63  51  65 S6        30.08F
CUY CO. ARPT   MOCLDY    61  52  72 S8        30.10F
LORAIN-ELYRIA  PTCLDY    58  52  80 CALM      30.10S
ASHTABULA      CLEAR     56  52  86 SE5       30.11F
AKRON-CANTON   CLEAR     62  52  69 S7        30.11F
WOOSTER        CLEAR     52  48  86 CALM      30.11F
MANSFIELD      CLEAR     56  50  80 S3        30.11F
YOUNGSTOWN     PTCLDY    61  54  77 SE12      30.12F
$$

OHZ042-051>053-060>062-070>072-077>081-200300-
  SOUTHWEST OHIO

CITY           SKY/WX    TMP DP  RH WIND       PRES   REMARKS
CINC-COVINGTON PTCLDY    62  51  67 CALM      30.09S
CINC-LUNKEN    CLEAR     56  53  90 CALM      30.09F
HAMILTON       CLEAR     54  52  93 CALM      30.10R
DAYTON         PTCLDY    63  48  58 SE6       30.10S
WRIGHT-PAT AFB CLEAR     57  51  79 CALM      30.10R
DAYTON GENERAL CLEAR     61  51  70 CALM      30.09S
WILMINGTON     CLEAR     57  50  77 CALM      30.10S
$$

OHZ036-037-039>041-045>050-054>059-063>069-073>076-082>088-200300-
  CENTRAL AND SOUTHEAST OHIO

CITY           SKY/WX    TMP DP  RH WIND       PRES   REMARKS
COLUMBUS       PTCLDY    65  51  60 E6        30.09S
OSU AIRPORT    CLEAR     62  50  64 CALM      30.09F
BOLTON FIELD   CLEAR     57  51  80 CALM      30.10S
RICKENBACK AFB CLEAR     59  52  77 E5        30.09S
NEWARK         CLEAR     54  51  90 CALM      30.10F
MARION         PTCLDY    55  47  74 SE5       30.10F
LANCASTER      CLEAR     55  52  89 CALM      30.10S
ZANESVILLE     CLEAR     59  54  83 CALM      30.10F
NEW PHILLY     CLEAR     56  55  97 CALM      30.12F
$$


USA.gov is the U.S. government's official web portal to all federal, state and local government web resources and services.